Home > Weather > Sibiu > Past weeks

Flag for Romania Past Weather in Sibiu, Romania — Yesterday and Last 2 Weeks

Now
75 °F

Passing clouds.


Feels Like: 77 °F
Forecast: 58 / 87 °F
Wind: 2 mph from North

Location: Sibiu Airport

Current Time: Jun 30, 2016 at 11:35:24 AM

Latest Report: Jun 30, 2016 at 11:00 AM


Visibility: N/A

Pressure: 30.07 "Hg

Humidity: 61%

Dew Point: 61 °F

Location of SibiuLocation

Past Weather in Sibiu — Graph

°F

Sibiu Temperature Yesterday

Maximum temperature yesterday: 77 °F (at 4:00 PM)
Minimum temperature yesterday: 64 °F (at 12:00 AM)
Average temperature yesterday: 69 °F

High & Low Weather Summary for the Past Weeks

 TemperatureHumidityPressure
High93 °F (Jun 17, 3:30 PM)100% (Jun 15, 11:00 PM)30.24 "Hg (Jun 15, 11:00 PM)
Low54 °F (Jun 16, 5:00 AM)23% (Jun 17, 3:30 PM)29.65 "Hg (Jun 15, 10:00 AM)
Average74 °F67%30.03 "Hg
* Reported Jun 15 10:00 AM — Jun 30 10:30 AM, Sibiu, Weather by CustomWeather, © 2016

Note: Actual official high and low records may vary slightly from our data, if they occured in-between our weather recording intervals... More about our weather records

Advertising

Sibiu Weather History for the Previous 24 Hours

Scroll right to see more
 ConditionsComfort  
Time TempWeatherWind HumidityBarometerVisibility
10:30 AM
Thu, Jun 30
75 °FSunny.2 mph57%30.07 "Hg10 mi
10:00 AM75 °FSunny.2 mph57%30.07 "Hg10 mi
9:30 AM75 °FSunny.1 mph57%30.07 "Hg10 mi
9:00 AM73 °FSunny.1 mph69%30.07 "Hg10 mi
8:30 AM72 °FSunny.1 mph73%30.07 "Hg10 mi
8:00 AM68 °FSunny.1 mph83%30.07 "Hg10 mi
7:30 AM66 °FSunny.1 mph88%30.07 "Hg10 mi
7:00 AM64 °FLight fog.2 mph100%30.04 "HgN/A
6:30 AM61 °FFog.No wind100%30.04 "HgN/A
6:00 AM61 °FFog.1 mph100%30.04 "HgN/A
5:00 AM63 °FRain. Overcast.1 mph100%30.04 "HgN/A
4:00 AM63 °FPassing clouds.1 mph100%30.04 "HgN/A
3:00 AM64 °FPassing clouds.2 mph94%30.04 "HgN/A
2:00 AM64 °FPassing clouds.3 mph100%30.04 "HgN/A
1:00 AM66 °FPassing clouds.1 mph100%30.04 "HgN/A
12:00 AM68 °FPassing clouds.2 mph100%30.04 "HgN/A
11:00 PM
Wed, Jun 29
68 °FPassing clouds.2 mph88%30.01 "HgN/A
10:00 PM70 °FScattered clouds.3 mph78%30.01 "HgN/A
8:30 PM73 °FScattered clouds.3 mph65%29.98 "HgN/A
8:00 PM73 °FScattered clouds.6 mph65%29.98 "HgN/A
7:00 PM77 °FScattered clouds.8 mph57%29.98 "HgN/A
6:30 PM75 °FScattered clouds.9 mph61%29.98 "HgN/A
6:00 PM75 °FPartly sunny.5 mph65%29.98 "HgN/A
5:30 PM73 °FPartly sunny.6 mph74%29.98 "HgN/A
5:00 PM72 °FPartly sunny.5 mph69%29.98 "HgN/A
4:30 PM73 °FScattered clouds.7 mph69%29.98 "HgN/A
4:00 PM77 °FScattered clouds.9 mph57%29.98 "HgN/A
3:30 PM75 °FBroken clouds.2 mph65%29.98 "HgN/A
3:00 PM73 °FBroken clouds.6 mph69%29.98 "HgN/A
2:30 PM73 °FBroken clouds.3 mph65%29.98 "HgN/A
2:00 PM73 °FPartly sunny.6 mph65%29.98 "HgN/A
1:30 PM73 °FBroken clouds.3 mph65%29.98 "HgN/A
1:00 PM73 °FBroken clouds.3 mph69%29.98 "HgN/A
12:00 PM72 °FScattered clouds.6 mph69%29.98 "HgN/A
11:30 AM70 °FPartly sunny.5 mph73%29.98 "HgN/A
11:00 AM70 °FBroken clouds.6 mph73%29.98 "HgN/A
Weather by CustomWeather, © 2016

See weather overviewHow to use our weather pages